Weather History for Lorain / Elyria, OH

Change the Weather History Date:

Tuesday, November 12, 2013

  Actual Average (KCLE) Record (KCLE)
Temperature  
Mean Temperature 32 °F 45 °F  
Max Temperature 35 °F 53 °F 74 °F (1949)
Min Temperature 30 °F 38 °F 18 °F (1911)
Degree Days  
Heating Degree Days 32 20  
Month to date heating degree days 214  
Since 1 July heating degree days 674  
Cooling Degree Days 0 0  
Month to date cooling degree days 0  
Year to date cooling degree days 816  
Moisture  
Dew Point 22 °F    
Average Humidity 67    
Maximum Humidity 86    
Minimum Humidity 50    
Precipitation  
Precipitation 0.03 in 0.12 in 1.65 in (1992)
Month to date precipitation 1.41  
Year to date precipitation 33.83  
Snow  
Snow 0.00 in 0.20 in - ()
Month to date snowfall 1.1  
Since 1 July snowfall 1.3  
Since 1 September snowfall 1.3  
Snow Depth -    
Sea Level Pressure  
Sea Level Pressure 30.43 in    
Wind  
Wind Speed 11 mph (NNW)    
Max Wind Speed 21 mph    
Max Gust Speed 26 mph    
Visibility 9 miles    
Events Snow    
T = Trace of Precipitation, MM = Missing Value Source: NWS Daily Summary

Daily Weather History Graph

Daily Weather History Graph

Search for Another Location

Airport:

Trip Planner

Search our weather history database for the weather conditions in past years. The results will help you decide how hot, cold, wet, or windy it might be!

Date:

Astronomy

Nov. 12, 2013 Rise Set
Actual Time 7:13 AM EST 5:11 PM EST
Civil Twilight 6:44 AM EST 5:41 PM EST
Nautical Twilight 6:10 AM EST 6:14 PM EST
Astronomical Twilight 5:38 AM EST 6:46 PM EST
Moon 2:28 PM EST (11/12) 1:58 AM EST (11/12)
Length of Visible Light 10h 56m
Length of Day
9h 57m
Waxing Gibbous, 76% of the Moon is Illuminated
Nov 12
Waxing Gibbous
Nov 17
Full
Nov 25
Last Quarter
Dec 2
New
Dec 9
First Quarter

Hourly Weather History & Observations

Time (EST) Temp. Windchill Dew Point Humidity Pressure Visibility Wind Dir Wind Speed Gust Speed Precip Events Conditions
12:01 AM 30.2 °F 20.8 °F 26.6 °F 86% 30.25 in 1.2 mi North 11.5 mph - 0.00 in Snow Light Snow
12:16 AM 30.2 °F 24.3 °F 26.6 °F 86% 30.25 in 2.0 mi North 5.8 mph - 0.00 in Snow Light Snow
12:27 AM 30.2 °F 23.4 °F 24.8 °F 80% 30.25 in 6.0 mi North 6.9 mph - 0.00 in Snow Light Snow
12:34 AM 30.2 °F 22.6 °F 23.0 °F 75% 30.25 in 9.0 mi North 8.1 mph - 0.01 in   Overcast
12:53 AM 32.0 °F 24.2 °F 21.9 °F 66% 30.27 in 10.0 mi North 9.2 mph - 0.01 in   Overcast
1:53 AM 32.0 °F 22.5 °F 21.9 °F 66% 30.29 in 10.0 mi North 12.7 mph - N/A   Overcast
2:53 AM 30.9 °F 20.7 °F 21.0 °F 67% 30.32 in 10.0 mi North 13.8 mph - N/A   Overcast
3:53 AM 30.9 °F 21.2 °F 21.0 °F 67% 30.33 in 10.0 mi North 12.7 mph - N/A   Overcast
4:53 AM 30.9 °F 22.2 °F 19.0 °F 61% 30.35 in 10.0 mi NNW 10.4 mph - N/A   Overcast
5:53 AM 30.9 °F 19.4 °F 21.0 °F 67% 30.38 in 10.0 mi North 17.3 mph 24.2 mph N/A   Overcast
6:53 AM 30.9 °F 21.2 °F 21.0 °F 67% 30.40 in 10.0 mi North 12.7 mph - 0.00 in   Overcast
7:41 AM 30.2 °F 17.4 °F 21.2 °F 69% 30.40 in 9.0 mi North 20.7 mph 26.5 mph 0.00 in Snow Light Snow
7:53 AM 30.9 °F 21.2 °F 21.9 °F 69% 30.44 in 9.0 mi North 12.7 mph - 0.00 in Snow Light Snow
8:19 AM 30.2 °F 20.2 °F 23.0 °F 75% 30.42 in 9.0 mi North 12.7 mph 21.9 mph 0.00 in Snow Light Snow
8:43 AM 30.2 °F 19.8 °F 24.8 °F 80% 30.43 in 10.0 mi NNW 13.8 mph 18.4 mph 0.00 in Snow Light Snow
8:53 AM 32.0 °F 23.6 °F 24.1 °F 73% 30.46 in 9.0 mi North 10.4 mph - 0.00 in Snow Light Snow
9:24 AM 33.8 °F 23.9 °F 24.8 °F 70% 30.44 in 9.0 mi North 15.0 mph 19.6 mph 0.00 in   Overcast
9:53 AM 33.1 °F 23.9 °F 25.0 °F 72% 30.47 in 9.0 mi North 12.7 mph 21.9 mph 0.00 in Snow Light Snow
10:04 AM 33.8 °F 26.4 °F 24.8 °F 70% 30.45 in 10.0 mi NNE 9.2 mph - N/A   Overcast
10:12 AM 33.8 °F 24.3 °F 24.8 °F 70% 30.45 in 10.0 mi NNE 13.8 mph - N/A   Overcast
10:53 AM 34.0 °F 26.0 °F 24.1 °F 67% 30.49 in 10.0 mi NNE 10.4 mph 21.9 mph N/A   Overcast
11:53 AM 34.0 °F 26.6 °F 24.1 °F 67% 30.49 in 9.0 mi North 9.2 mph - 0.01 in Snow Light Snow
12:50 PM 33.8 °F 23.5 °F 24.8 °F 70% 30.46 in 3.0 mi North 16.1 mph 20.7 mph 0.00 in Snow Light Snow
12:53 PM 34.0 °F 25.5 °F 24.1 °F 67% 30.49 in 3.0 mi North 11.5 mph 20.7 mph 0.00 in Snow Light Snow
1:13 PM 35.6 °F 25.5 °F 24.8 °F 65% 30.46 in 10.0 mi NNW 17.3 mph 25.3 mph 0.01 in   Overcast
1:53 PM 34.0 °F 24.6 °F 23.0 °F 64% 30.49 in 10.0 mi NNW 13.8 mph - 0.01 in   Overcast
2:53 PM 34.0 °F 23.8 °F 21.0 °F 59% 30.51 in 10.0 mi NNW 16.1 mph - N/A   Mostly Cloudy
3:53 PM 34.0 °F 25.5 °F 19.9 °F 56% 30.51 in 10.0 mi NNW 11.5 mph 21.9 mph N/A   Mostly Cloudy
4:53 PM 34.0 °F 25.5 °F 19.0 °F 54% 30.51 in 10.0 mi NW 11.5 mph 18.4 mph N/A   Overcast
5:53 PM 33.1 °F 25.5 °F 18.0 °F 54% 30.51 in 10.0 mi NW 9.2 mph 18.4 mph N/A   Overcast
6:53 PM 33.1 °F 26.1 °F 19.0 °F 56% 30.51 in 10.0 mi NW 8.1 mph 17.3 mph N/A   Overcast
7:53 PM 33.1 °F 24.4 °F 16.0 °F 50% 30.52 in 10.0 mi NW 11.5 mph - N/A   Overcast
8:53 PM 34.0 °F 24.6 °F 17.1 °F 50% 30.53 in 10.0 mi NW 13.8 mph - 0.00 in   Overcast
9:53 PM 32.0 °F 24.2 °F 19.9 °F 61% 30.53 in 10.0 mi WNW 9.2 mph - N/A   Overcast
10:53 PM 30.9 °F 22.2 °F 19.9 °F 64% 30.53 in 10.0 mi West 10.4 mph - N/A   Overcast
11:53 PM 30.9 °F 25.2 °F 19.9 °F 64% 30.52 in 10.0 mi West 5.8 mph - N/A   Overcast